Elizabethton, TN

12:59 PM EDT on August 25, 2016 (GMT -0400)
Elizabethton

Weather History for K0A9 - April, 2013

Change the Weather History Date:

Friday, April 12, 2013

  Actual Average (KTRI) Record (KTRI)
Temperature  
Mean Temperature 52 °F 54 °F  
Max Temperature 60 °F 67 °F 84 °F (1945)
Min Temperature 42 °F 41 °F 25 °F (1989)
Degree Days  
Heating Degree Days 13 11  
Month to date heating degree days 150  
Since 1 July heating degree days 4100  
Cooling Degree Days 0 0  
Month to date cooling degree days 0  
Year to date cooling degree days 1  
Growing Degree Days 2 (Base 50)    
Moisture  
Dew Point 48 °F    
Average Humidity 78    
Maximum Humidity 100    
Minimum Humidity 45    
Precipitation  
Precipitation 0.00 in 0.11 in 1.05 in (1959)
Month to date precipitation 1.31  
Year to date precipitation 11.57  
Snow  
Snow 0.00 in 0.10 in - ()
Month to date snowfall 0.6  
Since 1 July snowfall 12.8  
Snow Depth -    
Sea Level Pressure  
Sea Level Pressure 29.78 in    
Wind  
Wind Speed 8 mph (WSW)    
Max Wind Speed 18 mph    
Max Gust Speed 31 mph    
Visibility 9 miles    
Events Rain    
T = Trace of Precipitation, MM = Missing Value Source: NWS Daily Summary

Daily Weather History Graph

Daily Weather History Graph

Search for Another Location

Airport or City:

Trip Planner

Search our weather history database for the weather conditions in past years. The results will help you decide how hot, cold, wet, or windy it might be!

Date:

Astronomy

Apr. 12, 2013 Rise Set
Actual Time 6:58 AM EDT 8:00 PM EDT
Civil Twilight 6:32 AM EDT 8:26 PM EDT
Nautical Twilight 6:01 AM EDT 8:58 PM EDT
Astronomical Twilight 5:28 AM EDT 9:30 PM EDT
Moon 8:11 AM EDT (4/12) 10:25 PM EDT (4/12)
Length of Visible Light 13h 54m
Length of Day
13h 01m
Waxing Crescent, 5% of the Moon is Illuminated
Apr 12
Waxing Crescent
Apr 18
First Quarter
Apr 25
Full
May 2
Last Quarter
May 9
New

Hourly Weather History & Observations

Time (EDT) Temp. Windchill Dew Point Humidity Pressure Visibility Wind Dir Wind Speed Gust Speed Precip Events Conditions
12:15 AM 60.8 °F - 59.0 °F 94% 29.76 in 8.0 mi WSW 18.4 mph 31.1 mph N/A Rain Heavy Rain
12:35 AM 59.0 °F - 57.2 °F 94% 29.76 in 8.0 mi WSW 10.4 mph - N/A Rain Heavy Rain
12:55 AM 59.0 °F - 57.2 °F 94% 29.76 in 5.0 mi WSW 6.9 mph - N/A Rain Heavy Rain
1:15 AM 57.2 °F - 57.2 °F 100% 29.74 in 10.0 mi Variable 4.6 mph - N/A Rain Heavy Rain
1:35 AM 57.2 °F - 57.2 °F 100% 29.76 in 7.0 mi Calm Calm - N/A Rain Rain
1:55 AM 57.2 °F - 57.2 °F 100% 29.71 in 7.0 mi Calm Calm - N/A Rain Light Rain
2:15 AM 57.2 °F - 57.2 °F 100% 29.71 in 10.0 mi ESE 3.5 mph - N/A Rain Light Rain
2:35 AM 57.2 °F - 57.2 °F 100% 29.71 in 10.0 mi ENE 3.5 mph - N/A Rain Light Rain
2:55 AM 57.2 °F - 57.2 °F 100% 29.66 in 10.0 mi ENE 6.9 mph - N/A Rain Light Rain
3:15 AM 57.2 °F - 57.2 °F 100% 29.67 in 10.0 mi East 3.5 mph - N/A   Mostly Cloudy
3:35 AM 57.2 °F - 57.2 °F 100% 29.65 in 10.0 mi NE 4.6 mph - N/A   Mostly Cloudy
3:55 AM 57.2 °F - 55.4 °F 94% 29.64 in 10.0 mi SSE 4.6 mph - N/A   Mostly Cloudy
4:15 AM 57.2 °F - 55.4 °F 94% 29.64 in 10.0 mi NNE 4.6 mph - N/A   Mostly Cloudy
4:35 AM 57.2 °F - 55.4 °F 94% 29.63 in 10.0 mi Calm Calm - N/A   Scattered Clouds
4:55 AM 59.0 °F - 55.4 °F 88% 29.63 in 10.0 mi Variable 3.5 mph - N/A   Scattered Clouds
5:15 AM 59.0 °F - 55.4 °F 88% 29.62 in 10.0 mi Variable 3.5 mph - N/A   Light Drizzle
5:55 AM 60.8 °F - 55.4 °F 82% 29.62 in 10.0 mi Calm Calm - N/A   Mostly Cloudy
6:15 AM 60.8 °F - 55.4 °F 82% 29.63 in 10.0 mi Calm Calm - N/A   Overcast
6:35 AM 60.8 °F - 55.4 °F 82% 29.65 in 10.0 mi West 5.8 mph - N/A   Overcast
6:55 AM 60.8 °F - 55.4 °F 82% 29.68 in 3.0 mi WSW 11.5 mph - N/A Rain Light Rain
7:15 AM 57.2 °F - 57.2 °F 100% 29.70 in 5.0 mi WSW 4.6 mph - N/A   Light Drizzle
7:35 AM 57.2 °F - 57.2 °F 100% 29.70 in 4.0 mi WSW 8.1 mph - N/A Rain Light Rain
7:55 AM 57.2 °F - 57.2 °F 100% 29.72 in 7.0 mi SW 8.1 mph - N/A   Light Drizzle
8:15 AM 57.2 °F - 55.4 °F 94% 29.73 in 4.0 mi WSW 6.9 mph - N/A Rain Light Rain
8:35 AM 55.4 °F - 55.4 °F 100% 29.75 in 3.0 mi SW 10.4 mph - N/A Rain Light Rain
8:55 AM 55.4 °F - 53.6 °F 94% 29.76 in 4.0 mi WSW 9.2 mph - N/A   Drizzle
9:15 AM 55.4 °F - 53.6 °F 94% 29.77 in 4.0 mi WSW 11.5 mph - N/A   Light Drizzle
9:35 AM 53.6 °F - 51.8 °F 94% 29.78 in 10.0 mi SW 10.4 mph - N/A   Overcast
9:55 AM 53.6 °F - 51.8 °F 94% 29.79 in 10.0 mi WSW 11.5 mph - N/A   Overcast
10:15 AM 53.6 °F - 51.8 °F 94% 29.80 in 10.0 mi SW 9.2 mph - N/A   Overcast
10:55 AM 53.6 °F - 50.0 °F 88% 29.81 in 10.0 mi WSW 8.1 mph - N/A   Overcast
11:15 AM 53.6 °F - 50.0 °F 88% 29.82 in 10.0 mi WSW 9.2 mph - N/A   Overcast
11:35 AM 53.6 °F - 48.2 °F 82% 29.82 in 10.0 mi SW 10.4 mph - N/A   Overcast
11:55 AM 53.6 °F - 48.2 °F 82% 29.82 in 10.0 mi SW 9.2 mph - N/A   Overcast
12:15 PM 53.6 °F - 50.0 °F 88% 29.82 in 10.0 mi WSW 9.2 mph - N/A   Overcast
12:35 PM 53.6 °F - 48.2 °F 82% 29.82 in 10.0 mi SW 11.5 mph - N/A   Overcast
12:55 PM 55.4 °F - 48.2 °F 77% 29.82 in 10.0 mi SW 13.8 mph - N/A   Overcast
1:15 PM 55.4 °F - 48.2 °F 77% 29.82 in 10.0 mi WSW 8.1 mph - N/A   Overcast
1:35 PM 53.6 °F - 48.2 °F 82% 29.82 in 10.0 mi West 9.2 mph - N/A   Overcast
1:55 PM 55.4 °F - 48.2 °F 77% 29.82 in 10.0 mi WSW 8.1 mph - N/A   Overcast
2:15 PM 57.2 °F - 46.4 °F 67% 29.82 in 10.0 mi SW 13.8 mph - N/A   Overcast
2:35 PM 60.8 °F - 46.4 °F 59% 29.81 in 10.0 mi SW 15.0 mph - N/A   Partly Cloudy
2:55 PM 60.8 °F - 46.4 °F 59% 29.82 in 10.0 mi WSW 11.5 mph - N/A   Scattered Clouds
3:15 PM 60.8 °F - 46.4 °F 59% 29.81 in 10.0 mi West 10.4 mph - N/A   Partly Cloudy
3:35 PM 60.8 °F - 44.6 °F 55% 29.81 in 10.0 mi SW 12.7 mph - N/A   Scattered Clouds
3:55 PM 60.8 °F - 44.6 °F 55% 29.81 in 10.0 mi WSW 10.4 mph - N/A   Mostly Cloudy
4:15 PM 60.8 °F - 42.8 °F 52% 29.81 in 10.0 mi West 9.2 mph - N/A   Scattered Clouds
4:35 PM 60.8 °F - 42.8 °F 52% 29.82 in 10.0 mi WNW 12.7 mph 27.6 mph N/A   Partly Cloudy
4:55 PM 60.8 °F - 39.2 °F 45% 29.82 in 10.0 mi West 13.8 mph 20.7 mph N/A   Clear
5:15 PM 60.8 °F - 39.2 °F 45% 29.82 in 10.0 mi WSW 15.0 mph - N/A   Clear
5:35 PM 60.8 °F - 39.2 °F 45% 29.82 in 10.0 mi West 9.2 mph - N/A   Clear
5:55 PM 59.0 °F - 41.0 °F 51% 29.82 in 10.0 mi WNW 12.7 mph - N/A   Clear
6:15 PM 60.8 °F - 41.0 °F 48% 29.82 in 10.0 mi WSW 16.1 mph - N/A   Clear
6:35 PM 59.0 °F - 41.0 °F 51% 29.83 in 10.0 mi West 6.9 mph - N/A   Clear
6:55 PM 57.2 °F - 39.2 °F 51% 29.83 in 10.0 mi West 9.2 mph - N/A   Clear
7:15 PM 57.2 °F - 37.4 °F 48% 29.83 in 10.0 mi WSW 9.2 mph - N/A   Clear
7:35 PM 57.2 °F - 37.4 °F 48% 29.84 in 10.0 mi West 11.5 mph - N/A   Clear
7:55 PM 55.4 °F - 37.4 °F 51% 29.84 in 10.0 mi WSW 8.1 mph - N/A   Clear
8:15 PM 55.4 °F - 37.4 °F 51% 29.85 in 10.0 mi WSW 8.1 mph - N/A   Clear
8:35 PM 53.6 °F - 37.4 °F 54% 29.85 in 10.0 mi WSW 8.1 mph - N/A   Clear
8:55 PM 51.8 °F - 39.2 °F 62% 29.86 in 10.0 mi West 4.6 mph - N/A   Clear
9:15 PM 51.8 °F - 37.4 °F 58% 29.87 in 10.0 mi WNW 4.6 mph - N/A   Clear
9:35 PM 51.8 °F - 39.2 °F 62% 29.89 in 10.0 mi West 3.5 mph - N/A   Clear
9:55 PM 50.0 °F - 39.2 °F 66% 29.90 in 10.0 mi WNW 4.6 mph - N/A   Clear
10:15 PM 48.2 °F - 41.0 °F 76% 29.90 in 10.0 mi WNW 3.5 mph - N/A   Clear
10:35 PM 48.2 °F - 39.2 °F 71% 29.91 in 10.0 mi WNW 4.6 mph - N/A   Clear
10:55 PM 46.4 °F - 41.0 °F 81% 29.93 in 10.0 mi Calm Calm - N/A   Clear
11:15 PM 44.6 °F - 41.0 °F 87% 29.93 in 10.0 mi Calm Calm - N/A   Clear
11:35 PM 44.6 °F 43.1 °F 39.2 °F 81% 29.93 in 10.0 mi NW 3.5 mph - N/A   Clear
11:55 PM 42.8 °F 40.1 °F 39.2 °F 87% 29.93 in 10.0 mi WNW 4.6 mph - N/A   Clear